LUCH DEB, 44582

Orbit data source: Space-Track

LUCH DEB, 44582 is space debris in GEO originally from a launch on Fri, 16 Dec 1994 UTC launched from the Tyuratam Missile And Space Complex (TTMTR). Debris objects in space refer to the collection of defunct objects orbiting the Earth. Examples of debris include non-operational satellites, rocket bodies, and fragments generated from explosions, collisions, or faulty payload assembly.

Loading next visibility...
Identifier
44582, 1994-082G
Orbit
GEO
Country
Flag of CISCIS
Related business
Manufacturer
Unknown
Mission
Spacecraft
Bus & Motor
Unknown
Mass
Unknown
Launch date (UTC)
1994-12-16 (32 years ago)
Launch vehicle
Unknown
Launch site
Tyuratam Missile And Space Complex (TTMTR)
Object type
Payload
Rocket body
Debris
Shape & HBR
Unknown shape, 1.1 m
Radar Cross Section
Large (>1 m²)

Expand to show TLE details & history
Last TLE update: 3 days ago

TLE from 3 days ago
0 LUCH DEB
1 44582U 94082G   26170.58418521 -.00000100  00000-0  00000-0 0  9998
2 44582  14.5928 354.0014 0021673 101.2205 263.8450  1.00700127 46276
Epoch: 2026-06-19T14:01Z
TLE epoch observation values (Epoch: 2026-06-19T14:01:13.602Z)
Latitude
1.21584°
Longitude
-119.44779°
Altitude
35,676.251 km
Speed
3.078 km/s
True Right ascension
23h 54m 40s
True Declination
1° 12' 53"
Sunlit
Object was in daylight at epoch
Visualization orbit readout
Latitude
Unknown
Longitude
Unknown
Altitude
Unknown
Speed
Unknown
Apparent Right ascension
Unknown
Apparent Declination
Unknown
Sunlit
N/A
Visualization observer readout
Local Sidereal Time
23:18:41
Azimuth
Unknown
Elevation
Unknown
Doppler factor
Unknown
Orbital elements
Apogee altitude
35,759.041 km
Perigee altitude
35,576.788 km
Semi-major axis
42,046.052 km
Eccentricity
0.00217
Inclination
14.5928°
RAAN
354.0014°
Arg. of periapsis
101.2205°
True anomaly
263.59815°
Mean anomaly
263.845°
Eccentric anomaly
263.72157°
Mean motion
0.25174 °/min
Orbital period
1,430.04 mins
BSTAR
0
Loading maneuver chart data...
Computing Atmospheric mass density...
Loading historical data...
Loading historical data...
Loading historical data...
Loading historical data...
Loading historical data...
Loading historical data...
Loading historical data...

Documentation

Showing up to 5 results
|